Weather History for Billings, MT

Change the Weather History Date:

Thursday, May 23, 2013

  Actual Average Record
Temperature  
Mean Temperature 62 °F 58 °F  
Max Temperature 71 °F 70 °F 88 °F (1985)
Min Temperature 52 °F 46 °F 29 °F (2002)
Degree Days  
Heating Degree Days 3 8  
Month to date heating degree days 189 254  
Since 1 July heating degree days 6281 6631  
Cooling Degree Days 0 1  
Month to date cooling degree days 27 5  
Year to date cooling degree days 27 6  
Growing Degree Days 12 (Base 50)    
Moisture  
Dew Point 46 °F    
Average Humidity 69    
Maximum Humidity 93    
Minimum Humidity 44    
Precipitation  
Precipitation 0.18 in 0.07 in 1.33 in (2008)
Month to date precipitation 2.00 1.58  
Year to date precipitation 4.16 5.26  
Snow  
Snow 0.00 in 0.00 in 0.10 in (2002)
Month to date snowfall T 1.9  
Since 1 July snowfall 40.4 54.9  
Snow Depth 0.00 in    
Sea Level Pressure  
Sea Level Pressure 29.78 in    
Wind  
Wind Speed 16 mph (ENE)    
Max Wind Speed 30 mph    
Max Gust Speed 36 mph    
Visibility 10 miles    
Events Rain , Thunderstorm    
T = Trace of Precipitation, MM = Missing Value Source: NWS Daily Summary

Daily Weather History Graph

Daily Weather History Graph

Search for Another Location

Airport:

Trip Planner

Search our weather history database for the weather conditions in past years. The results will help you decide how hot, cold, wet, or windy it might be!

Date:

Astronomy

May. 23, 2013 Rise Set
Actual Time 5:34 AM MDT 8:48 PM MDT
Civil Twilight 4:58 AM MDT 9:24 PM MDT
Nautical Twilight 4:11 AM MDT 10:11 PM MDT
Astronomical Twilight 3:13 AM MDT 11:10 PM MDT
Moon 7:21 PM MDT (5/23) 4:26 AM MDT (5/23)
Length of Visible Light 16h 26m
Length of Day
15h 14m
Waxing Gibbous, 97% of the Moon is Illuminated
May 23
Waxing Gibbous
May 24
Full
May 31
Last Quarter
Jun 8
New
Jun 16
First Quarter

Hourly Weather History & Observations

Time (MDT) Temp. Dew Point Humidity Pressure Visibility Wind Dir Wind Speed Gust Speed Precip Events Conditions
12:53 AM 54.0 °F 43.0 °F 66% 29.90 in 10.0 mi ENE 10.4 mph - 0.00 in Rain Light Rain
1:05 AM 53.1 °F 43.0 °F 69% 29.92 in 10.0 mi ENE 15.0 mph - 0.00 in   Mostly Cloudy
1:53 AM 53.1 °F 43.0 °F 69% 29.85 in 10.0 mi ENE 16.1 mph - 0.00 in Rain Light Rain
2:53 AM 53.1 °F 44.1 °F 71% 29.83 in 10.0 mi ENE 12.7 mph 20.7 mph 0.00 in   Scattered Clouds
3:53 AM 53.1 °F 43.0 °F 69% 29.83 in 10.0 mi ENE 12.7 mph - N/A   Mostly Cloudy
4:11 AM 53.1 °F 43.0 °F 69% 29.88 in 10.0 mi ENE 10.4 mph - N/A   Overcast
4:53 AM 52.0 °F 42.1 °F 69% 29.82 in 10.0 mi ESE 11.5 mph 23.0 mph N/A   Mostly Cloudy
5:07 AM 53.1 °F 42.1 °F 66% 29.86 in 10.0 mi East 15.0 mph 25.3 mph N/A   Mostly Cloudy
5:53 AM 52.0 °F 42.1 °F 69% 29.82 in 10.0 mi East 20.7 mph 31.1 mph N/A   Mostly Cloudy
6:53 AM 52.0 °F 42.1 °F 69% 29.82 in 10.0 mi East 16.1 mph 24.2 mph N/A   Mostly Cloudy
7:53 AM 53.1 °F 43.0 °F 69% 29.82 in 10.0 mi ESE 16.1 mph 25.3 mph N/A   Mostly Cloudy
8:53 AM 54.0 °F 43.0 °F 66% 29.84 in 10.0 mi ESE 11.5 mph - N/A   Mostly Cloudy
9:53 AM 55.9 °F 44.1 °F 64% 29.82 in 10.0 mi ESE 17.3 mph - N/A   Scattered Clouds
10:53 AM 60.1 °F 45.0 °F 57% 29.81 in 10.0 mi East 15.0 mph - N/A   Partly Cloudy
11:53 AM 62.1 °F 45.0 °F 53% 29.80 in 10.0 mi ESE 15.0 mph - N/A   Partly Cloudy
12:53 PM 64.9 °F 46.0 °F 50% 29.78 in 10.0 mi East 12.7 mph - N/A   Partly Cloudy
1:53 PM 66.9 °F 45.0 °F 45% 29.77 in 10.0 mi East 15.0 mph 19.6 mph N/A   Scattered Clouds
2:53 PM 69.1 °F 46.0 °F 44% 29.74 in 10.0 mi SE 16.1 mph 20.7 mph N/A   Scattered Clouds
3:53 PM 69.1 °F 46.0 °F 44% 29.72 in 10.0 mi ENE 17.3 mph 26.5 mph N/A   Scattered Clouds
4:53 PM 69.1 °F 46.0 °F 44% 29.72 in 10.0 mi East 9.2 mph - N/A   Mostly Cloudy
5:53 PM 66.9 °F 46.9 °F 49% 29.70 in 10.0 mi NE 17.3 mph 25.3 mph N/A   Mostly Cloudy
6:48 PM 66.2 °F 48.2 °F 52% 29.75 in 10.0 mi NNE 18.4 mph - 0.00 in Rain , Thunderstorm Light Thunderstorms and Rain
6:53 PM 66.0 °F 46.9 °F 50% 29.70 in 10.0 mi North 13.8 mph 23.0 mph 0.00 in Rain , Thunderstorm Light Thunderstorms and Rain
7:40 PM 60.1 °F 52.0 °F 75% 29.72 in 10.0 mi NE 19.6 mph - 0.09 in Rain Light Rain
7:53 PM 60.1 °F 51.1 °F 72% 29.68 in 10.0 mi NNE 18.4 mph - 0.09 in   Mostly Cloudy
8:53 PM 57.9 °F 51.1 °F 78% 29.67 in 10.0 mi NNE 15.0 mph 24.2 mph 0.01 in Rain , Thunderstorm Thunderstorms and Rain
9:53 PM 57.0 °F 53.1 °F 87% 29.73 in 7.0 mi WNW 13.8 mph - 0.04 in Rain , Thunderstorm Thunderstorms and Rain
10:53 PM 54.0 °F 51.1 °F 90% 29.70 in 10.0 mi NW 28.8 mph 35.7 mph 0.03 in Rain , Thunderstorm Light Thunderstorms and Rain
11:11 PM 53.1 °F 50.0 °F 89% 29.77 in 10.0 mi NW 25.3 mph 32.2 mph 0.00 in Rain Light Rain
11:53 PM 54.0 °F 51.1 °F 90% 29.76 in 10.0 mi NW 18.4 mph - 0.01 in   Overcast